Weather History for Juneau, WI

Change the Weather History Date:

Friday, February 24, 2012

  Actual Average Record
Temperature  
Mean Temperature 30 °F -  
Max Temperature 32 °F 31 °F 60 °F (2002)
Min Temperature 28 °F 19 °F -8 °F (1993)
Degree Days  
Heating Degree Days 35    
Moisture  
Dew Point 26 °F    
Average Humidity 85    
Maximum Humidity 100    
Minimum Humidity 60    
Precipitation  
Precipitation 0.00 in - - ()
Sea Level Pressure  
Sea Level Pressure 29.63 in    
Wind  
Wind Speed 9 mph (NW)    
Max Wind Speed 13 mph    
Max Gust Speed 22 mph    
Visibility 5 miles    
Events Snow    
Averages and records for this station are not official NWS values.
T = Trace of Precipitation, MM = Missing Value Source: NWS Daily Summary

Daily Weather History Graph

Daily Weather History Graph

Search for Another Location

Airport:

Trip Planner

Search our weather history database for the weather conditions in past years. The results will help you decide how hot, cold, wet, or windy it might be!

Date:

Astronomy

Feb. 24, 2012 Rise Set
Actual Time 6:40 AM CST 5:36 PM CST
Civil Twilight 6:11 AM CST 6:05 PM CST
Nautical Twilight 5:38 AM CST 6:38 PM CST
Astronomical Twilight 5:05 AM CST 7:11 PM CST
Moon 7:28 AM CST (2/24) 8:47 PM CST (2/24)
Length of Visible Light 11h 54m
Length of Day
10h 56m
Waxing Crescent, 8% of the Moon is Illuminated
Feb 24
Waxing Crescent
Feb 29
First Quarter
Mar 8
Full
Mar 14
Last Quarter
Mar 22
New

Hourly Weather History & Observations

Time (CST) Temp. Windchill Dew Point Humidity Pressure Visibility Wind Dir Wind Speed Gust Speed Precip Events Conditions
12:15 AM 30.2 °F 24.3 °F 30.2 °F 100% 29.57 in 4.0 mi NNE 5.8 mph - N/A Snow Light Snow
12:35 AM 30.2 °F 22.6 °F 30.2 °F 100% 29.56 in 4.0 mi NNE 8.1 mph - N/A Snow Light Snow
12:55 AM 30.2 °F 22.6 °F 28.4 °F 93% 29.55 in 4.0 mi NNE 8.1 mph - N/A   Overcast
1:15 AM 30.2 °F 24.3 °F 30.2 °F 100% 29.55 in 2.0 mi North 5.8 mph - N/A Snow Light Snow
1:35 AM 30.2 °F 23.4 °F 30.2 °F 100% 29.55 in 1.5 mi North 6.9 mph - N/A Snow Light Snow
1:55 AM 30.2 °F 23.4 °F 30.2 °F 100% 29.54 in 1.8 mi North 6.9 mph - N/A Snow Light Snow
2:15 AM 30.2 °F 23.4 °F 30.2 °F 100% 29.53 in 1.5 mi North 6.9 mph - N/A Snow Light Snow
2:35 AM 30.2 °F 23.4 °F 28.4 °F 93% 29.53 in 1.8 mi North 6.9 mph - N/A Snow Light Snow
2:55 AM 30.2 °F 21.9 °F 30.2 °F 100% 29.52 in 1.8 mi North 9.2 mph - N/A Snow Light Snow
3:15 AM 30.2 °F 21.9 °F 30.2 °F 100% 29.52 in 2.0 mi NNW 9.2 mph - N/A Snow Light Snow
3:55 AM 28.4 °F 19.7 °F 28.4 °F 100% 29.52 in 2.0 mi NNW 9.2 mph 16.1 mph N/A Snow Light Snow
4:15 AM 30.2 °F 21.3 °F 28.4 °F 93% 29.53 in 1.5 mi NNW 10.4 mph - N/A Snow Light Snow
4:35 AM 30.2 °F 20.8 °F 28.4 °F 93% 29.53 in 1.5 mi NNW 11.5 mph - N/A Snow Light Snow
4:55 AM 28.4 °F 19.7 °F 28.4 °F 100% 29.54 in 1.2 mi NNW 9.2 mph - N/A Snow Light Snow
5:15 AM 30.2 °F 22.6 °F 28.4 °F 93% 29.54 in 1.2 mi NNW 8.1 mph - N/A Snow Light Snow
5:35 AM 30.2 °F 21.3 °F 28.4 °F 93% 29.55 in 1.2 mi NNW 10.4 mph - N/A Snow Light Snow
5:55 AM 30.2 °F 21.9 °F 30.2 °F 100% 29.55 in 1.0 mi NNW 9.2 mph - N/A Snow Light Snow
6:15 AM 30.2 °F 20.2 °F 28.4 °F 93% 29.56 in 1.2 mi NNW 12.7 mph 16.1 mph N/A Snow Light Snow
6:35 AM 30.2 °F 20.8 °F 28.4 °F 93% 29.57 in 1.2 mi NNW 11.5 mph 16.1 mph N/A Snow Light Snow
6:55 AM 30.2 °F 20.8 °F 28.4 °F 93% 29.57 in 1.2 mi NNW 11.5 mph - N/A Snow Light Snow
7:15 AM 30.2 °F 20.8 °F 28.4 °F 93% 29.58 in 1.5 mi NNW 11.5 mph - N/A Snow Light Snow
7:35 AM 30.2 °F 20.8 °F 30.2 °F 100% 29.59 in 1.8 mi NNW 11.5 mph 16.1 mph N/A Snow Light Snow
7:55 AM 30.2 °F 20.2 °F 28.4 °F 93% 29.60 in 1.5 mi NW 12.7 mph - N/A Snow Light Snow
8:35 AM 30.2 °F 22.6 °F 28.4 °F 93% 29.61 in 4.0 mi NW 8.1 mph - N/A Snow Light Snow
8:55 AM 30.2 °F 21.9 °F 28.4 °F 93% 29.61 in 4.0 mi NW 9.2 mph - N/A   Overcast
9:15 AM 30.2 °F 21.3 °F 28.4 °F 93% 29.61 in 7.0 mi NW 10.4 mph - N/A   Mostly Cloudy
9:35 AM 30.2 °F 21.3 °F 28.4 °F 93% 29.62 in 10.0 mi NW 10.4 mph 16.1 mph N/A   Overcast
9:55 AM 32.0 °F 23.6 °F 28.4 °F 87% 29.63 in 10.0 mi WNW 10.4 mph - N/A   Overcast
10:15 AM 32.0 °F 24.2 °F 28.4 °F 87% 29.64 in 10.0 mi WNW 9.2 mph 16.1 mph N/A   Overcast
10:35 AM 32.0 °F 24.2 °F 26.6 °F 80% 29.64 in 10.0 mi NW 9.2 mph - N/A   Overcast
10:55 AM 32.0 °F 24.8 °F 24.8 °F 75% 29.65 in 10.0 mi WNW 8.1 mph 18.4 mph N/A   Overcast
11:15 AM 32.0 °F 23.6 °F 23.0 °F 69% 29.66 in 10.0 mi WNW 10.4 mph - N/A   Overcast
11:35 AM 32.0 °F 26.4 °F 23.0 °F 69% 29.66 in 10.0 mi WNW 5.8 mph - N/A   Overcast
11:55 AM 32.0 °F 23.0 °F 24.8 °F 75% 29.67 in 10.0 mi West 11.5 mph - N/A Snow Light Snow
12:15 PM 32.0 °F 24.2 °F 26.6 °F 80% 29.67 in 5.0 mi West 9.2 mph 17.3 mph N/A Snow Light Snow
12:35 PM 32.0 °F 24.8 °F 24.8 °F 75% 29.67 in 10.0 mi West 8.1 mph - N/A Snow Light Snow
12:55 PM 32.0 °F 23.6 °F 23.0 °F 69% 29.67 in 10.0 mi West 10.4 mph - N/A   Overcast
1:15 PM 32.0 °F 22.5 °F 21.2 °F 64% 29.68 in 10.0 mi West 12.7 mph 20.7 mph N/A   Overcast
1:35 PM 32.0 °F 22.5 °F 21.2 °F 64% 29.69 in 10.0 mi West 12.7 mph 21.9 mph N/A   Overcast
1:55 PM 32.0 °F 23.6 °F 19.4 °F 60% 29.69 in 10.0 mi West 10.4 mph 16.1 mph N/A   Overcast
2:15 PM 32.0 °F 23.0 °F 19.4 °F 60% 29.70 in 10.0 mi West 11.5 mph 17.3 mph N/A   Overcast
2:35 PM 32.0 °F 24.8 °F 19.4 °F 60% 29.72 in 10.0 mi West 8.1 mph 17.3 mph N/A   Overcast
2:55 PM 32.0 °F 24.8 °F 19.4 °F 60% 29.73 in 10.0 mi WNW 8.1 mph 18.4 mph N/A   Overcast
3:15 PM 30.2 °F 21.9 °F 21.2 °F 69% 29.74 in 10.0 mi West 9.2 mph 16.1 mph N/A   Overcast
3:35 PM 30.2 °F 21.3 °F 23.0 °F 75% 29.75 in 10.0 mi West 10.4 mph 17.3 mph N/A   Overcast
3:55 PM 30.2 °F 21.3 °F 23.0 °F 75% 29.75 in 10.0 mi West 10.4 mph - N/A   Overcast
4:15 PM 30.2 °F 22.6 °F 23.0 °F 75% 29.76 in 7.0 mi West 8.1 mph - N/A Snow Light Snow
4:35 PM 30.2 °F 23.4 °F 26.6 °F 86% 29.77 in 2.5 mi West 6.9 mph - N/A Snow Light Snow
4:55 PM 30.2 °F 22.6 °F 26.6 °F 86% 29.77 in 3.0 mi West 8.1 mph - N/A Snow Light Snow
5:15 PM 30.2 °F 23.4 °F 26.6 °F 86% 29.78 in 1.0 mi West 6.9 mph - N/A Snow Light Snow
5:35 PM 30.2 °F 22.6 °F 28.4 °F 93% 29.79 in 1.8 mi West 8.1 mph - N/A Snow Light Snow
5:55 PM 30.2 °F 23.4 °F 23.0 °F 75% 29.81 in 10.0 mi West 6.9 mph - N/A Snow Light Snow
6:15 PM 30.2 °F 21.9 °F 21.2 °F 69% 29.81 in 10.0 mi West 9.2 mph 18.4 mph N/A Snow Light Snow
6:35 PM 28.4 °F 18.0 °F 21.2 °F 74% 29.82 in 10.0 mi West 12.7 mph 20.7 mph N/A   Overcast
6:55 PM 28.4 °F 18.5 °F 21.2 °F 74% 29.82 in 10.0 mi West 11.5 mph 20.7 mph N/A   Overcast
7:15 PM 28.4 °F 17.5 °F 21.2 °F 74% 29.83 in 7.0 mi West 13.8 mph 23.0 mph N/A   Overcast
7:35 PM 28.4 °F 18.5 °F 19.4 °F 69% 29.83 in 10.0 mi West 11.5 mph 18.4 mph N/A   Overcast
7:55 PM 28.4 °F 19.7 °F 19.4 °F 69% 29.84 in 10.0 mi West 9.2 mph 16.1 mph N/A   Overcast
8:15 PM 28.4 °F 20.4 °F 17.6 °F 64% 29.84 in 10.0 mi West 8.1 mph - N/A   Overcast
8:35 PM 28.4 °F 20.4 °F 14.0 °F 55% 29.85 in 10.0 mi West 8.1 mph 20.7 mph N/A   Overcast
8:55 PM 28.4 °F 15.8 °F 12.2 °F 51% 29.85 in 10.0 mi WNW 18.4 mph 29.9 mph N/A   Overcast
9:15 PM 26.6 °F 16.2 °F 12.2 °F 55% 29.86 in 10.0 mi WNW 11.5 mph 20.7 mph N/A   Overcast
9:35 PM 26.6 °F 17.5 °F 12.2 °F 55% 29.86 in 10.0 mi WNW 9.2 mph 16.1 mph N/A   Overcast
9:55 PM 26.6 °F 19.1 °F 12.2 °F 55% 29.87 in 10.0 mi WNW 6.9 mph - N/A   Overcast
10:15 PM 26.6 °F 20.0 °F 12.2 °F 55% 29.87 in 10.0 mi WNW 5.8 mph - N/A   Overcast
10:55 PM 26.6 °F 16.8 °F 10.4 °F 51% 29.88 in 10.0 mi WNW 10.4 mph 16.1 mph N/A   Overcast
11:15 PM 26.6 °F 18.2 °F 10.4 °F 51% 29.88 in 10.0 mi WNW 8.1 mph 19.6 mph N/A   Overcast
11:35 PM 26.6 °F 18.2 °F 10.4 °F 51% 29.89 in 10.0 mi WNW 8.1 mph - N/A   Overcast
11:55 PM 26.6 °F 21.2 °F 10.4 °F 51% 29.89 in 10.0 mi West 4.6 mph - N/A   Overcast